Flag for U.S.A. Weather past 2 weeks in Santa Rosa, California, U.S.A.

Now
58 °F

Broken clouds.


Feels Like: 58 °F
Forecast: 49 / 76 °F
Wind: 3 mph from North

Location: Santa Rosa Sonoma County Airport

Current Time: May 28, 2015 at 11:57:04 AM

Latest Report: May 28, 2015 at 10:53 AM


Visibility: 10 mi

Pressure: 30.00 "Hg

Humidity: 75%

Dew point: 50 °F

Location of Santa RosaLocation

Historic Weather in Santa Rosa — Graph

°F

Santa Rosa temperature yesterday

Maximum temperature yesterday: 71 °F (at 3:53 PM)
Minimum temperature yesterday: 51 °F (at 4:53 AM)
Average temperature yesterday: 58 °F

Past Weeks' High & Low Weather Summary

 TemperatureHumidityPressure
High75 °F (May 23, 4:53 PM)100% (May 14, 11:58 PM)30.07 "Hg (May 14, 11:58 PM)
Low44 °F (May 16, 5:53 AM)40% (May 13, 12:53 PM)29.75 "Hg (May 14, 4:53 PM)
Average57 °F75%29.93 "Hg
* Reported May 13 10:53 AM — May 28 10:53 AM, Santa Rosa, Weather by CustomWeather, © 2015

Note: Actual official high and low records may vary slightly from our data, if they occured in-between our weather recording intervals... More about our weather records

Advertising

Santa Rosa weather history for previous 24 hours

 ConditionsComfort  
Time TempWeatherWind HumidityBarometerVisibility
10:53 AM
Thu, May 28
58 °FBroken clouds.3 mph75%30.00 "Hg10 mi
9:53 AM56 °FFog.No wind81%30.00 "Hg6 mi
8:53 AM52 °FFog.5 mph93%30.01 "Hg3 mi
7:53 AM53 °FFog.3 mph89%29.99 "Hg4 mi
6:53 AM52 °FFog.No wind93%29.98 "Hg3 mi
5:53 AM51 °FFog.No wind96%29.97 "Hg5 mi
4:53 AM52 °FLow clouds.No wind93%29.97 "Hg9 mi
3:53 AM52 °FLow clouds.No wind93%29.96 "Hg10 mi
2:53 AM52 °FLow clouds.3 mph93%29.97 "Hg10 mi
1:53 AM52 °FLow clouds.No wind93%29.96 "Hg10 mi
12:53 AM52 °FLow clouds.No wind93%29.97 "Hg10 mi
11:53 PM
Wed, May 27
53 °FLow clouds.3 mph89%29.97 "Hg10 mi
10:53 PM52 °FPassing clouds.No wind93%29.97 "Hg10 mi
9:53 PM53 °FClear.7 mph89%29.96 "Hg10 mi
8:53 PM55 °FSunny.8 mph83%29.95 "Hg10 mi
7:53 PM59 °FSunny.10 mph75%29.94 "Hg10 mi
6:53 PM64 °FPassing clouds.10 mph63%29.93 "Hg10 mi
5:53 PM69 °FPassing clouds.10 mph55%29.93 "Hg10 mi
4:53 PM70 °FPassing clouds.10 mph51%29.93 "Hg10 mi
3:53 PM71 °FPassing clouds.12 mph51%29.94 "Hg10 mi
2:53 PM70 °FPassing clouds.9 mph53%29.95 "Hg10 mi
1:53 PM69 °FPassing clouds.5 mph55%29.96 "Hg10 mi
12:53 PM65 °FScattered clouds.3 mph61%29.98 "Hg10 mi
11:53 AM62 °FScattered clouds.3 mph65%29.99 "Hg10 mi
Weather by CustomWeather, © 2015

See weather overviewHow to use our weather pages